Thursday, October 30, 2014
16:46 UTC
  |  Log In   |  Register Free
Airport Search:

Caruthersville Memorial Airport
(M05)

Caruthersville Memorial Airport Diagram
No Airport Diagram Available

FAA data valid effective September 18, 2014 - November 13, 2014 (unless otherwise noted).

 
 
 
 
 
 
 
 
 
 
 
 
 
 

Current Aviation Weather for Caruthersville Memorial Airport (M05)

METAR data is unavailable for M05. The nearest METAR location is at KHKA (15.6 nm SW from M05).

The most recent METAR observation for KHKA was updated at: 1611
METAR Summary (Translated METAR)
KHKA
301553Z AUTO 16005KT 10SM CLR 16/05 A3017 RMK AO2 SLP215 T01610050
(15.6 nm SW from M05)
KDYR
301555Z 17007KT 10SM CLR 14/02 A3017 RMK AO1
(16.6 nm SE from M05)
TAF
No TAF information found within 50 nm of KBYH
  Airport Weather Conditions for M05

Current weather conditions are
not available for M05


The nearest NOAA weather station
is at HKA, (15.6 nm SW from M05)
  
 Current Weather at HKA
61° F
Fair
South winds at 5.8 mph
HKA NOAA Radar

Pressure: 30.17 in
Humidity: 48%
Wind: South at 5.8 MPH (5 KT)
Dew Point: 41.0°F
Visibility: 10.00 mi


Airport Weather Forecast for M05

Translated METAR and TAF for KBYH
Translated METAR for KBYH (1642 UTC 30 October 2014)
found at http://aviationweather.gov/adds/metars/
 
METAR text: KBYH 301450Z 14007KT 10SM SKC 13/06 A3017
Conditions at: KBYH (BLYTHEVILLE , AR, US) observed 1450 UTC 30 October 2014
Temperature: 13.0°C (55°F)
Dewpoint: 6.0°C (43°F) [RH = 62%]
Pressure (altimeter): 30.17 inches Hg (1021.8 mb)
Winds: from the SE (140 degrees) at 8 MPH (7 knots; 3.6 m/s)
Visibility: 10 or more miles (16+ km)
Ceiling: at least 12,000 feet AGL
Clouds: clear skies
Weather: no significant weather observed at this time
Translated TAF for KBYH

There is no translated TAF available for this airport

Find All Airport Services Find A Hotel Find A Rental Car Find A Golf Course Find A Restaurant $100 Hamburger



FBO's on the Field
FBO Company Facility Photos Services Transportation Aviation Fuel Prices: Prices include tax
Catering Weather Repair Courtesy Rental Type 100LL JetA JetA+ MOGAS 8087
 
Add another FBO Facility Photos Catering Weather Repair Courtesy Rental Type 100LL JetA JetA+ MOGAS 8087
Services Transportation Aviation Fuel Prices: Prices include tax
There are no FBO's currently reporting fuel at M05. List your FBO now


model-print
model-print
model-print
model-print